EDT,Max TemperatureF,Mean TemperatureF,Min TemperatureF,Max Dew PointF,MeanDew PointF,Min DewpointF,Max Humidity, Mean Humidity, Min Humidity, Max Sea Level PressureIn, Mean Sea Level PressureIn, Min Sea Level PressureIn, Max VisibilityMiles, Mean VisibilityMiles, Min VisibilityMiles, Max Wind SpeedMPH, Mean Wind SpeedMPH, Max Gust SpeedMPH,PrecipitationIn, CloudCover, Events, WindDirDegrees
2012-9-1,93,83,73,75,72,70,89,74,46,30.14,30.10,30.05,10,10,10,8,3,,0.00,1,Thunderstorm,280
2012-9-2,93,82,71,75,72,63,100,76,46,30.07,30.01,29.93,10,10,1,10,1,16,0.16,2,Thunderstorm,74
2012-9-3,89,80,71,75,71,68,94,82,52,30.06,30.01,29.97,10,9,3,21,3,25,0.51,5,,199
2012-9-4,87,79,71,72,69,66,94,74,49,30.04,30.00,29.93,10,10,7,13,4,17,0.00,4,,195
2012-9-5,87,80,73,72,70,68,94,74,52,29.98,29.94,29.89,10,10,9,14,8,22,0.00,4,,230
2012-9-6,87,79,71,73,71,70,94,81,58,29.97,29.93,29.89,10,10,6,12,7,16,0.15,4,Thunderstorm,234
2012-9-7,86,78,69,70,69,66,100,80,55,30.00,29.94,29.88,10,8,0,8,1,,0.00,5,,82
2012-9-8,91,80,69,73,69,66,100,77,49,29.88,29.81,29.71,10,9,0,16,5,23,0.00,5,Thunderstorm,219
2012-9-9,78,68,57,66,57,52,94,71,41,29.99,29.91,29.83,10,10,10,9,3,16,0.05,5,,23
2012-9-10,78,64,51,55,53,48,94,68,39,30.17,30.09,30.00,10,10,10,9,2,,0.00,1,,16
2012-9-11,78,64,50,55,52,46,94,67,36,30.32,30.26,30.18,10,9,0,7,1,,0.00,1,,80
2012-9-12,78,64,51,55,52,46,94,67,34,30.38,30.32,30.28,10,9,3,13,2,18,0.00,1,,78
2012-9-13,80,64,48,57,51,43,94,67,26,30.37,30.30,30.25,10,10,3,12,2,17,0.00,0,,76
2012-9-14,80,68,55,64,60,54,94,78,54,30.27,30.21,30.16,10,9,1,7,1,,0.00,2,,40
2012-9-15,84,70,57,66,60,55,94,72,45,30.19,30.15,30.09,10,9,0,8,2,,0.00,1,,52
2012-9-16,69,66,62,63,60,57,94,80,68,30.18,30.13,30.09,10,10,10,7,3,,0.00,6,,70
2012-9-17,82,72,62,70,65,61,94,82,58,30.12,30.05,29.95,10,9,0,9,2,17,0.16,6,,156
2012-9-18,80,74,69,72,70,66,94,86,74,29.94,29.81,29.75,10,10,8,22,10,29,0.48,6,Thunderstorm,197
2012-9-19,71,66,60,66,57,52,94,72,50,30.14,30.02,29.86,10,10,10,14,4,21,0.00,6,,54
2012-9-20,75,64,53,59,54,50,94,72,47,30.18,30.12,30.07,10,10,9,9,1,,0.00,0,,73
2012-9-21,80,66,51,61,56,48,94,71,44,30.12,30.06,30.01,10,9,2,8,1,,0.00,1,,212
2012-9-22,86,74,62,64,61,57,88,66,43,30.04,29.98,29.91,10,10,10,17,9,25,0.00,1,,228
2012-9-23,75,63,51,64,48,37,82,54,25,30.12,30.07,29.99,10,10,10,10,2,20,0.00,2,,21
2012-9-24,71,60,50,48,44,41,88,60,35,30.24,30.19,30.13,10,10,10,10,2,,0.00,0,,46
2012-9-25,78,61,44,54,48,41,93,66,34,30.26,30.22,30.19,10,10,2,8,1,,0.00,0,,204
2012-9-26,82,66,51,57,54,48,94,63,37,30.25,30.20,30.16,10,10,10,9,3,,0.00,0,,223
2012-9-27,84,70,57,66,58,54,94,69,35,30.23,30.16,30.10,10,10,1,8,3,,0.00,1,,263
2012-9-28,84,72,60,64,60,55,94,68,42,30.12,30.07,30.00,10,10,10,12,4,,0.00,1,,251
2012-9-29,69,66,62,64,61,57,94,86,73,30.02,29.96,29.89,10,10,1,9,2,,0.04,6,Thunderstorm,69
2012-9-30,73,66,59,59,57,54,94,78,50,29.94,29.91,29.86,10,8,1,7,1,,0.00,6,,86